Location: Caixon
(43.4106°N, 0.0273°E)
Time: 16:13:51
(UTC+00:00)

Cosmos 1470 - Pass Details

Date: 16 October 2021
Orbit: 518 x 542 km, 82.5° (Epoch: 28 November)

Event Time Altitude Azimuth Distance (km) Brightness Sun altitude
Rises 05:34:58 0° 337° (NNW) 2,691 6.1 -8.1°
Reaches altitude 10° 05:37:31 10° 321° (NW) 1,790 5.0 -7.6°
Maximum altitude 05:40:29 21° 272° (W) 1,233 4.0 -7.1°
Drops below altitude 10° 05:43:25 10° 222° (SW) 1,767 5.1 -6.5°
Sets 05:45:55 0° 206° (SSW) 2,646 6.1 -6.1°
